| time (UTC) | temp F | wind direction | speed MPH | gust MPH | rain 1hr in | rain 24hr in | rain mn in | humidity % | barometer mb |
| 20260903160515 | 85 | 135 | 7.0 | 12.0 | 0.00 | 0.00 | 0.00 | 71 | 1012.8 |
| 20260903155516 | 84 | 180 | 6.0 | 11.0 | 0.00 | 0.00 | 0.00 | 73 | 1012.8 |
| 20260903154516 | 84 | 158 | 8.0 | 14.0 | 0.00 | 0.00 | 0.00 | 73 | 1012.7 |
| 20260903153515 | 83 | 158 | 6.0 | 12.0 | 0.00 | 0.00 | 0.00 | 75 | 1012.7 |
| 20260903152515 | 81 | 135 | 8.0 | 13.0 | 0.00 | 0.00 | 0.00 | 76 | 1012.7 |
| 20260903151516 | 82 | 135 | 8.0 | 12.0 | 0.00 | 0.00 | 0.00 | 75 | 1012.7 |
| 20260903150515 | 83 | 135 | 8.0 | 11.0 | 0.00 | 0.00 | 0.00 | 73 | 1012.7 |
| 20260903145515 | 85 | 113 | 8.0 | 14.0 | 0.00 | 0.00 | 0.00 | 71 | 1012.7 |
| 20260903144515 | 84 | 135 | 7.0 | 12.0 | 0.00 | 0.00 | 0.00 | 71 | 1012.8 |
| 20260903143515 | 83 | 135 | 5.0 | 11.0 | 0.00 | 0.00 | 0.00 | 73 | 1012.7 |
| 20260903142515 | 83 | 158 | 6.0 | 11.0 | 0.00 | 0.00 | 0.00 | 73 | 1012.6 |
| 20260903141515 | 82 | 135 | 8.0 | 11.0 | 0.00 | 0.00 | 0.00 | 74 | 1012.7 |
| 20260903140517 | 82 | 135 | 5.0 | 9.0 | 0.00 | 0.00 | 0.00 | 74 | 1012.7 |
| 20260903135517 | 81 | 135 | 5.0 | 8.0 | 0.00 | 0.00 | 0.00 | 75 | 1012.7 |
| 20260903134517 | 81 | 135 | 5.0 | 7.0 | 0.00 | 0.00 | 0.00 | 76 | 1012.8 |
| 20260903133517 | 80 | 135 | 5.0 | 8.0 | 0.00 | 0.00 | 0.00 | 78 | 1012.9 |
| 20260903132517 | 79 | 135 | 4.0 | 7.0 | 0.00 | 0.00 | 0.00 | 80 | 1012.9 |
| 20260903131517 | 78 | 135 | 2.0 | 3.0 | 0.00 | 0.00 | 0.00 | 82 | 1012.8 |
| 20260903130535 | 77 | 0.0 | 3.0 | 0.00 | 0.00 | 0.00 | 83 | 1012.8 | |
| 20260903125537 | 76 | 0.0 | 0.0 | 0.00 | 0.00 | 0.00 | 85 | 1012.7 | |
| 20260903124517 | 75 | 0.0 | 0.0 | 0.00 | 0.00 | 0.00 | 87 | 1012.6 | |
| 20260903123517 | 75 | 0.0 | 2.0 | 0.00 | 0.00 | 0.00 | 86 | 1012.6 | |
| 20260903122517 | 74 | 135 | 1.0 | 3.0 | 0.00 | 0.00 | 0.00 | 87 | 1012.5 |
| 20260903121537 | 74 | 113 | 2.0 | 3.0 | 0.00 | 0.00 | 0.00 | 87 | 1012.5 |
| 20260903120517 | 74 | 0.0 | 2.0 | 0.00 | 0.00 | 0.00 | 87 | 1012.3 | |
| 20260903115517 | 74 | 90 | 2.0 | 6.0 | 0.00 | 0.00 | 0.00 | 87 | 1012.3 |
| 20260903114517 | 74 | 90 | 3.0 | 5.0 | 0.00 | 0.00 | 0.00 | 87 | 1012.2 |
| 20260903113517 | 74 | 90 | 3.0 | 4.0 | 0.00 | 0.00 | 0.00 | 87 | 1012.3 |
| 20260903112517 | 74 | 90 | 2.0 | 4.0 | 0.00 | 0.00 | 0.00 | 87 | 1012.2 |
| 20260903111517 | 74 | 90 | 1.0 | 2.0 | 0.00 | 0.00 | 0.00 | 87 | 1012.1 |
| 20260903110517 | 74 | 0.0 | 1.0 | 0.00 | 0.00 | 0.00 | 87 | 1012.2 | |
| 20260903105517 | 74 | 0.0 | 1.0 | 0.00 | 0.00 | 0.00 | 87 | 1012.2 | |
| 20260903104517 | 73 | 0.0 | 2.0 | 0.00 | 0.00 | 0.00 | 87 | 1012.3 | |
| 20260903103517 | 73 | 90 | 1.0 | 2.0 | 0.00 | 0.00 | 0.00 | 87 | 1012.2 |
| 20260903102536 | 73 | 90 | 2.0 | 4.0 | 0.00 | 0.00 | 0.00 | 87 | 1012.1 |
| 20260903101516 | 73 | 90 | 1.0 | 3.0 | 0.00 | 0.00 | 0.00 | 86 | 1012.1 |
| 20260903100516 | 73 | 90 | 1.0 | 3.0 | 0.00 | 0.00 | 0.00 | 85 | 1012.1 |
| 20260903095516 | 74 | 113 | 2.0 | 3.0 | 0.00 | 0.00 | 0.00 | 84 | 1012.2 |
| 20260903094516 | 74 | 0.0 | 0.0 | 0.00 | 0.00 | 0.00 | 84 | 1012.2 | |
| 20260903093516 | 74 | 0.0 | 0.0 | 0.00 | 0.00 | 0.00 | 83 | 1012.3 | |
| 20260903092516 | 75 | 0.0 | 0.0 | 0.00 | 0.00 | 0.00 | 83 | 1012.3 | |
| 20260903091516 | 75 | 0.0 | 0.0 | 0.00 | 0.00 | 0.00 | 82 | 1012.3 | |
| 20260903090516 | 76 | 0.0 | 0.0 | 0.00 | 0.00 | 0.00 | 82 | 1012.3 | |
| 20260903085516 | 76 | 113 | 1.0 | 3.0 | 0.00 | 0.00 | 0.00 | 81 | 1012.2 |
| 20260903084516 | 76 | 113 | 2.0 | 4.0 | 0.00 | 0.00 | 0.00 | 81 | 1012.1 |
| 20260903083516 | 77 | 113 | 3.0 | 4.0 | 0.00 | 0.00 | 0.00 | 81 | 1012.1 |
| 20260903082516 | 77 | 113 | 3.0 | 6.0 | 0.00 | 0.00 | 0.00 | 81 | 1012.0 |
| 20260903081536 | 77 | 90 | 2.0 | 3.0 | 0.00 | 0.00 | 0.00 | 80 | 1012.0 |
| 20260903080516 | 77 | 113 | 3.0 | 6.0 | 0.00 | 0.00 | 0.00 | 79 | 1012.1 |
| 20260903075536 | 77 | 113 | 3.0 | 4.0 | 0.00 | 0.00 | 0.00 | 79 | 1012.2 |
| 20260903074516 | 78 | 135 | 2.0 | 3.0 | 0.00 | 0.00 | 0.00 | 77 | 1012.3 |
| 20260903073516 | 78 | 135 | 3.0 | 6.0 | 0.00 | 0.00 | 0.00 | 77 | 1012.3 |
| 20260903072516 | 78 | 113 | 2.0 | 4.0 | 0.00 | 0.00 | 0.00 | 76 | 1012.3 |
| 20260903071536 | 79 | 135 | 2.0 | 4.0 | 0.00 | 0.00 | 0.00 | 75 | 1012.4 |
| 20260903070516 | 79 | 113 | 4.0 | 7.0 | 0.00 | 0.00 | 0.00 | 74 | 1012.5 |
| 20260903065516 | 79 | 135 | 5.0 | 8.0 | 0.00 | 0.00 | 0.00 | 74 | 1012.5 |
| 20260903064516 | 80 | 135 | 3.0 | 4.0 | 0.00 | 0.00 | 0.00 | 73 | 1012.5 |
| 20260903063516 | 80 | 113 | 4.0 | 7.0 | 0.00 | 0.00 | 0.00 | 72 | 1012.5 |
| 20260903062556 | 80 | 113 | 3.0 | 6.0 | 0.00 | 0.00 | 0.00 | 71 | 1012.6 |
| 20260903061515 | 81 | 113 | 3.0 | 5.0 | 0.00 | 0.00 | 0.00 | 71 | 1012.6 |
| 20260903060515 | 81 | 113 | 4.0 | 7.0 | 0.00 | 0.00 | 0.00 | 70 | 1012.6 |
| 20260903055516 | 81 | 113 | 4.0 | 6.0 | 0.00 | 0.00 | 0.00 | 69 | 1012.7 |
| 20260903054516 | 82 | 113 | 5.0 | 8.0 | 0.00 | 0.00 | 0.00 | 68 | 1012.8 |
| 20260903053516 | 83 | 113 | 6.0 | 9.0 | 0.00 | 0.00 | 0.00 | 67 | 1012.8 |
| 20260903052515 | 83 | 113 | 7.0 | 12.0 | 0.00 | 0.00 | 0.00 | 66 | 1012.8 |
| 20260903051515 | 84 | 113 | 7.0 | 11.0 | 0.00 | 0.00 | 0.00 | 66 | 1012.8 |
| 20260903050515 | 84 | 113 | 8.0 | 13.0 | 0.00 | 0.00 | 0.00 | 65 | 1012.8 |
| 20260903045516 | 85 | 113 | 10.0 | 15.0 | 0.00 | 0.00 | 0.00 | 64 | 1012.7 |
| 20260903044516 | 85 | 135 | 8.0 | 12.0 | 0.00 | 0.00 | 0.00 | 63 | 1012.6 |
| 20260903043516 | 86 | 113 | 8.0 | 11.0 | 0.00 | 0.00 | 0.00 | 62 | 1012.6 |
| 20260903042516 | 86 | 135 | 7.0 | 10.0 | 0.00 | 0.00 | 0.00 | 61 | 1012.5 |
| 20260903041516 | 86 | 113 | 7.0 | 10.0 | 0.00 | 0.00 | 0.00 | 60 | 1012.5 |
| 20260903040516 | 86 | 113 | 7.0 | 11.0 | 0.00 | 0.00 | 0.00 | 60 | 1012.5 |
| 20260903035516 | 86 | 113 | 7.0 | 12.0 | 0.00 | 0.00 | 0.00 | 60 | 1012.5 |
| 20260903034516 | 87 | 113 | 4.0 | 7.0 | 0.00 | 0.00 | 0.00 | 61 | 1012.5 |
| 20260903033516 | 87 | 113 | 5.0 | 8.0 | 0.00 | 0.00 | 0.00 | 60 | 1012.5 |
| 20260903032516 | 87 | 113 | 6.0 | 10.0 | 0.00 | 0.00 | 0.00 | 61 | 1012.5 |
| 20260903031516 | 87 | 113 | 6.0 | 9.0 | 0.00 | 0.00 | 0.00 | 60 | 1012.3 |
| 20260903030556 | 88 | 113 | 5.0 | 8.0 | 0.00 | 0.00 | 0.00 | 60 | 1012.3 |
| 20260903025516 | 88 | 113 | 5.0 | 8.0 | 0.00 | 0.00 | 0.00 | 59 | 1012.2 |
| 20260903024516 | 88 | 113 | 5.0 | 9.0 | 0.00 | 0.00 | 0.00 | 58 | 1012.1 |
| 20260903023516 | 88 | 135 | 5.0 | 8.0 | 0.00 | 0.00 | 0.00 | 58 | 1012.0 |
| 20260903022516 | 88 | 135 | 3.0 | 6.0 | 0.00 | 0.00 | 0.00 | 58 | 1011.8 |
| 20260903021516 | 89 | 135 | 3.0 | 5.0 | 0.00 | 0.00 | 0.00 | 56 | 1011.7 |
| 20260903020515 | 89 | 135 | 4.0 | 7.0 | 0.00 | 0.00 | 0.00 | 55 | 1011.5 |
| 20260903015516 | 90 | 113 | 6.0 | 8.0 | 0.00 | 0.00 | 0.00 | 53 | 1011.4 |
| 20260903014515 | 89 | 90 | 6.0 | 13.0 | 0.00 | 0.00 | 0.00 | 53 | 1011.2 |
| 20260903013515 | 89 | 90 | 3.0 | 4.0 | 0.00 | 0.00 | 0.00 | 52 | 1011.1 |
| 20260903012515 | 90 | 90 | 2.0 | 3.0 | 0.00 | 0.00 | 0.00 | 51 | 1010.9 |
| 20260903011515 | 91 | 90 | 2.0 | 7.0 | 0.00 | 0.00 | 0.00 | 51 | 1010.9 |
| 20260903010515 | 91 | 113 | 2.0 | 3.0 | 0.00 | 0.00 | 0.00 | 50 | 1010.8 |
| 20260903005515 | 92 | 113 | 3.0 | 7.0 | 0.00 | 0.00 | 0.00 | 49 | 1010.7 |
| 20260903004517 | 93 | 90 | 4.0 | 8.0 | 0.00 | 0.00 | 0.00 | 48 | 1010.7 |
| 20260903003517 | 94 | 90 | 6.0 | 11.0 | 0.00 | 0.00 | 0.00 | 47 | 1010.7 |
| 20260903002537 | 94 | 90 | 7.0 | 14.0 | 0.00 | 0.00 | 0.00 | 47 | 1010.7 |
| 20260903001517 | 95 | 90 | 9.0 | 15.0 | 0.00 | 0.00 | 0.00 | 46 | 1010.6 |
| 20260903000517 | 95 | 90 | 9.0 | 12.0 | 0.00 | 0.00 | 0.00 | 46 | 1010.5 |
| 20260902235517 | 96 | 90 | 8.0 | 14.0 | 0.00 | 0.00 | 0.00 | 46 | 1010.6 |
| 20260902234517 | 96 | 113 | 7.0 | 11.0 | 0.00 | 0.00 | 0.00 | 45 | 1010.5 |
| 20260902233517 | 96 | 90 | 7.0 | 13.0 | 0.00 | 0.00 | 0.00 | 45 | 1010.6 |
| 20260902232517 | 97 | 113 | 9.0 | 15.0 | 0.00 | 0.00 | 0.00 | 44 | 1010.7 |
| 20260902231517 | 97 | 113 | 7.0 | 12.0 | 0.00 | 0.00 | 0.00 | 42 | 1010.6 |
| 20260902230517 | 97 | 90 | 10.0 | 14.0 | 0.00 | 0.00 | 0.00 | 42 | 1010.7 |
| 20260902225517 | 97 | 90 | 8.0 | 13.0 | 0.00 | 0.00 | 0.00 | 43 | 1010.6 |
| 20260902224517 | 98 | 90 | 9.0 | 15.0 | 0.00 | 0.00 | 0.00 | 42 | 1010.8 |
| 20260902223517 | 98 | 68 | 6.0 | 12.0 | 0.00 | 0.00 | 0.00 | 42 | 1010.7 |
| 20260902222517 | 98 | 113 | 10.0 | 14.0 | 0.00 | 0.00 | 0.00 | 41 | 1010.8 |
| 20260902221516 | 98 | 113 | 8.0 | 13.0 | 0.00 | 0.00 | 0.00 | 41 | 1011.0 |
| 20260902220517 | 98 | 90 | 9.0 | 15.0 | 0.00 | 0.00 | 0.00 | 42 | 1011.1 |
| 20260902215516 | 98 | 90 | 9.0 | 16.0 | 0.00 | 0.00 | 0.00 | 42 | 1011.1 |
| 20260902214536 | 98 | 90 | 8.0 | 13.0 | 0.00 | 0.00 | 0.00 | 42 | 1011.3 |
| 20260902213557 | 98 | 113 | 10.0 | 15.0 | 0.00 | 0.00 | 0.00 | 42 | 1011.3 |
| 20260902212517 | 98 | 90 | 7.0 | 14.0 | 0.00 | 0.00 | 0.00 | 43 | 1011.3 |
| 20260902211516 | 99 | 90 | 5.0 | 9.0 | 0.00 | 0.00 | 0.00 | 42 | 1011.4 |
| 20260902210517 | 99 | 113 | 7.0 | 12.0 | 0.00 | 0.00 | 0.00 | 42 | 1011.6 |
| 20260902205516 | 98 | 90 | 9.0 | 14.0 | 0.00 | 0.00 | 0.00 | 43 | 1011.8 |
| 20260902204536 | 99 | 68 | 6.0 | 11.0 | 0.00 | 0.00 | 0.00 | 42 | 1011.9 |
| 20260902203517 | 99 | 45 | 7.0 | 13.0 | 0.00 | 0.00 | 0.00 | 41 | 1012.0 |
| 20260902202516 | 99 | 113 | 7.0 | 11.0 | 0.00 | 0.00 | 0.00 | 42 | 1012.1 |
| 20260902201516 | 99 | 68 | 5.0 | 10.0 | 0.00 | 0.00 | 0.00 | 43 | 1012.3 |
| 20260902200516 | 98 | 90 | 6.0 | 12.0 | 0.00 | 0.00 | 0.00 | 44 | 1012.5 |
| 20260902195516 | 98 | 90 | 6.0 | 12.0 | 0.00 | 0.00 | 0.00 | 45 | 1012.5 |
| 20260902194516 | 98 | 113 | 9.0 | 14.0 | 0.00 | 0.00 | 0.00 | 45 | 1012.7 |
| 20260902193516 | 98 | 135 | 7.0 | 11.0 | 0.00 | 0.00 | 0.00 | 45 | 1012.8 |
| 20260902192516 | 98 | 90 | 4.0 | 11.0 | 0.00 | 0.00 | 0.00 | 43 | 1013.1 |
| 20260902191517 | 98 | 68 | 7.0 | 12.0 | 0.00 | 0.00 | 0.00 | 44 | 1013.3 |
| 20260902190516 | 97 | 293 | 2.0 | 7.0 | 0.00 | 0.00 | 0.00 | 45 | 1013.4 |
| 20260902185516 | 97 | 68 | 9.0 | 15.0 | 0.00 | 0.00 | 0.00 | 46 | 1013.7 |
| 20260902184536 | 96 | 135 | 4.0 | 10.0 | 0.00 | 0.00 | 0.00 | 48 | 1013.6 |
| 20260902183516 | 96 | 90 | 3.0 | 7.0 | 0.00 | 0.00 | 0.00 | 46 | 1013.8 |
| 20260902182516 | 96 | 90 | 5.0 | 11.0 | 0.00 | 0.00 | 0.00 | 47 | 1014.0 |
| 20260902181516 | 96 | 90 | 5.0 | 10.0 | 0.00 | 0.00 | 0.00 | 48 | 1014.2 |
| 20260902180516 | 96 | 90 | 7.0 | 12.0 | 0.00 | 0.00 | 0.00 | 48 | 1014.4 |
| 20260902175516 | 96 | 90 | 5.0 | 12.0 | 0.00 | 0.00 | 0.00 | 48 | 1014.5 |
| 20260902174556 | 95 | 135 | 4.0 | 9.0 | 0.00 | 0.00 | 0.00 | 49 | 1014.7 |
| 20260902173516 | 95 | 90 | 3.0 | 11.0 | 0.00 | 0.00 | 0.00 | 50 | 1014.8 |
| 20260902172516 | 95 | 113 | 5.0 | 10.0 | 0.00 | 0.00 | 0.00 | 49 | 1014.9 |
| 20260902171516 | 95 | 135 | 6.0 | 10.0 | 0.00 | 0.00 | 0.00 | 50 | 1015.1 |
| 20260902170516 | 94 | 0 | 2.0 | 6.0 | 0.00 | 0.00 | 0.00 | 50 | 1015.1 |
| 20260902165516 | 94 | 203 | 3.0 | 6.0 | 0.00 | 0.00 | 0.00 | 50 | 1015.3 |
| 20260902164516 | 94 | 180 | 4.0 | 7.0 | 0.00 | 0.00 | 0.00 | 51 | 1015.4 |
| 20260902163515 | 93 | 135 | 3.0 | 8.0 | 0.00 | 0.00 | 0.00 | 51 | 1015.6 |
| 20260902162516 | 93 | 180 | 3.0 | 7.0 | 0.00 | 0.00 | 0.00 | 52 | 1015.7 |
| 20260902161515 | 92 | 135 | 3.0 | 8.0 | 0.00 | 0.00 | 0.00 | 54 | 1015.7 |